Total_Precipitation_Accumulation
0.06 0.11 0.12 0.14 0.16 0.19 0.25 0.32 0.42 0.48 0.45 0.53 0.65 0.88 1.01 1.22 1.39 1.60 1.73 1.79 1.75 1.82 2.02 2.34 2.82 3.53 3.99 4.16 4.25 4.46 4.51 4.61 4.64 4.66 4.65 4.80 4.97 5.00 5.00 5.15 5.19 5.06 4.99 5.17
0.11 0.12 0.10 0.11 0.16 0.19 0.27 0.33 0.42 0.49 0.43 0.52 0.72 0.94 1.11 1.27 1.41 1.51 1.60 1.66 1.61 1.64 1.90 2.34 2.82 3.31 3.60 3.98 4.18 4.43 4.47 4.65 4.92 5.32 5.83 6.10 6.24 6.11 5.94 5.84 5.78 5.63 5.53 5.66
0.12 0.10 0.06 0.08 0.15 0.20 0.28 0.31 0.41 0.51 0.55 0.59 0.83 1.26 1.32 1.40 1.62 1.75 1.73 1.79 1.85 1.71 1.89 2.25 2.49 2.90 3.21 3.60 3.95 4.21 4.56 4.94 5.45 6.14 6.97 7.32 7.12 6.66 6.43 6.13 6.07 5.81 5.59 5.59
0.09 0.07 0.08 0.09 0.11 0.17 0.25 0.21 0.29 0.40 0.56 0.70 0.71 1.34 1.66 1.78 1.95 2.10 1.89 1.82 1.86 1.88 1.90 2.08 2.34 2.66 2.88 3.23 3.69 4.17 4.72 5.30 5.99 6.64 7.11 7.34 7.25 6.97 6.65 6.19 5.79 5.41 5.10 4.93
0.11 0.10 0.13 0.16 0.11 0.15 0.17 0.17 0.23 0.30 0.44 0.65 0.64 1.03 1.71 1.96 2.09 2.17 1.99 1.93 1.89 1.88 1.80 1.91 2.09 2.34 2.67 3.12 3.61 4.13 4.64 5.35 5.88 6.43 6.83 7.11 7.10 7.00 6.63 5.90 5.25 4.82 4.46 4.21
0.10 0.10 0.15 0.14 0.10 0.13 0.16 0.20 0.29 0.37 0.48 0.79 0.65 0.95 1.78 2.20 2.27 2.14 2.06 2.06 1.89 1.79 1.86 1.94 1.97 2.13 2.64 3.11 3.64 4.02 4.37 5.08 5.78 6.28 6.64 6.92 6.91 6.74 6.11 5.36 4.79 4.39 4.06 3.79
0.23 0.18 0.16 0.13 0.15 0.16 0.21 0.39 0.74 0.91 0.98 0.88 0.63 1.01 1.82 1.97 1.97 1.96 1.80 1.75 1.78 1.77 1.77 1.78 2.00 2.22 2.83 3.30 3.54 3.79 4.09 4.55 5.05 5.48 5.79 5.98 6.02 5.77 5.32 4.89 4.43 4.05 3.79 3.51
0.38 0.31 0.19 0.14 0.13 0.17 0.24 0.39 0.82 1.10 1.14 1.02 0.97 1.66 2.24 1.93 1.84 1.87 1.82 1.64 1.64 1.75 1.69 1.68 1.94 2.25 2.46 2.75 3.06 3.39 3.63 3.95 4.24 4.43 4.66 4.64 4.60 4.54 4.32 3.97 3.58 3.29 2.99 2.79
0.43 0.36 0.18 0.14 0.11 0.15 0.25 0.33 0.39 0.63 0.72 1.03 1.44 1.93 2.38 2.22 2.11 1.87 1.78 1.71 1.70 1.65 1.61 1.72 1.95 2.12 2.21 2.40 2.66 2.87 3.02 3.31 3.47 3.47 3.49 3.43 3.31 3.32 3.31 3.17 2.88 2.57 2.34 2.17
0.36 0.38 0.25 0.18 0.15 0.17 0.22 0.30 0.43 0.76 1.07 1.35 1.64 2.35 2.89 2.87 2.57 2.24 1.94 1.75 1.58 1.61 1.67 1.77 1.89 2.11 2.20 2.21 2.42 2.58 2.58 2.66 2.80 2.88 2.75 2.55 2.61 2.70 2.68 2.61 2.38 2.17 1.96 1.80
0.38 0.48 0.36 0.25 0.26 0.27 0.28 0.35 0.49 0.74 0.88 1.43 1.99 2.73 2.69 2.77 2.59 2.44 2.31 1.92 1.73 1.77 1.83 1.89 1.88 1.98 2.04 2.04 2.12 2.25 2.28 2.32 2.34 2.42 2.41 2.30 2.21 2.15 2.14 2.16 2.09 1.94 1.81 1.70
0.39 0.48 0.53 0.36 0.31 0.28 0.31 0.36 0.52 0.91 1.04 1.20 1.77 2.70 2.27 2.62 2.69 2.53 2.35 2.03 1.93 2.01 2.00 2.03 2.02 1.95 1.97 2.12 2.24 2.16 2.15 2.15 2.17 2.14 2.17 2.21 2.02 1.90 1.85 1.83 1.80 1.68 1.65 1.62
0.36 0.54 0.82 0.85 0.74 0.49 0.43 0.39 0.46 0.62 0.94 1.21 1.70 2.61 2.36 2.50 2.71 2.51 2.27 2.14 2.17 2.17 2.16 2.26 2.16 1.95 1.89 1.96 2.02 1.91 1.85 1.84 1.71 1.68 1.82 1.92 1.75 1.61 1.61 1.58 1.56 1.56 1.50 1.47
0.31 0.59 1.08 1.53 1.28 0.75 0.57 0.44 0.43 0.61 1.02 1.19 1.46 2.00 2.16 2.27 2.35 2.35 2.25 2.22 2.19 2.15 2.12 2.24 2.25 2.03 1.94 1.83 1.80 1.71 1.62 1.59 1.56 1.53 1.53 1.57 1.56 1.52 1.49 1.45 1.45 1.42 1.35 1.30
0.34 0.60 0.72 0.69 0.54 0.54 0.55 0.50 0.51 0.61 0.76 1.13 1.41 1.71 1.96 2.23 2.39 2.45 2.31 2.19 2.13 2.12 2.16 2.29 2.20 2.02 1.97 1.92 1.87 1.65 1.54 1.51 1.49 1.52 1.52 1.47 1.46 1.41 1.43 1.42 1.39 1.31 1.29 1.21
0.38 0.53 0.62 0.66 0.55 0.56 0.64 0.62 0.63 0.71 0.83 1.05 1.36 1.82 2.09 2.40 2.48 2.39 2.24 2.16 2.21 2.19 2.15 2.13 2.06 2.02 1.98 1.95 1.88 1.65 1.48 1.41 1.47 1.55 1.55 1.48 1.44 1.38 1.38 1.41 1.41 1.38 1.39 1.38
0.47 0.64 0.92 0.93 0.70 0.83 1.21 1.04 0.98 1.03 1.04 1.26 1.57 1.82 2.00 2.29 2.40 2.37 2.23 2.24 2.38 2.33 2.38 2.29 2.20 2.22 2.22 2.08 1.88 1.75 1.55 1.44 1.45 1.48 1.47 1.53 1.48 1.38 1.32 1.32 1.43 1.44 1.48 1.44
0.54 0.79 1.11 1.13 1.26 1.84 1.68 1.07 1.06 1.19 1.16 1.19 1.31 1.44 1.65 1.92 2.01 2.03 2.10 2.23 2.36 2.36 2.34 2.29 2.25 2.29 2.27 2.11 1.99 1.85 1.60 1.46 1.42 1.40 1.33 1.39 1.40 1.39 1.35 1.37 1.43 1.46 1.52 1.53
0.46 0.84 1.31 1.48 1.73 1.94 1.71 1.22 1.12 1.43 1.71 1.31 1.28 1.34 1.44 1.46 1.74 2.07 2.01 1.96 2.09 2.17 2.17 2.19 2.20 2.24 2.22 2.13 2.00 1.85 1.65 1.47 1.37 1.32 1.28 1.22 1.19 1.22 1.26 1.27 1.36 1.51 1.56 1.51
0.50 0.81 1.38 1.66 2.11 2.36 1.91 1.07 0.91 1.45 2.33 1.57 1.44 1.44 1.54 1.69 2.11 2.12 1.78 1.71 1.82 1.93 1.98 1.99 2.01 2.07 2.09 2.04 1.97 1.91 1.79 1.57 1.38 1.23 1.11 1.14 1.18 1.18 1.19 1.26 1.36 1.38 1.43 1.42
1.01 1.18 1.43 1.73 2.30 2.30 1.38 0.90 1.06 2.18 2.50 1.65 1.55 1.54 1.58 1.76 1.89 1.73 1.54 1.63 1.77 1.84 1.86 1.76 1.69 1.72 1.82 1.83 1.81 1.79 1.68 1.47 1.22 1.09 1.03 1.11 1.11 1.13 1.13 1.27 1.30 1.30 1.27 1.34
1.49 1.76 1.88 2.04 2.49 2.54 1.34 1.14 1.75 2.07 1.50 1.42 1.51 1.48 1.48 1.37 1.26 1.36 1.48 1.63 1.74 1.81 1.76 1.63 1.57 1.45 1.40 1.45 1.58 1.63 1.45 1.20 1.05 1.00 0.97 1.00 1.01 0.94 0.93 1.20 1.31 1.30 1.35 1.30
1.55 1.91 2.13 2.35 2.51 2.02 1.45 1.51 1.55 1.46 1.40 1.33 1.34 1.26 1.23 1.24 1.22 1.31 1.47 1.57 1.71 1.70 1.60 1.50 1.39 1.27 1.16 1.21 1.28 1.28 1.21 1.08 0.93 0.94 0.98 0.94 0.90 0.98 0.96 1.01 1.08 1.13 1.23 1.17
1.61 1.53 1.73 1.98 2.00 1.73 1.57 1.53 1.40 1.27 1.28 1.23 1.23 1.24 1.26 1.29 1.27 1.30 1.41 1.43 1.55 1.57 1.48 1.37 1.34 1.28 1.17 1.08 1.03 1.01 0.90 0.92 0.94 0.97 1.01 0.99 0.95 0.98 0.97 0.94 0.89 0.82 0.86 0.90
1.56 1.71 1.95 2.10 2.03 1.85 1.65 1.40 1.27 1.25 1.29 1.29 1.29 1.27 1.25 1.32 1.36 1.36 1.38 1.35 1.36 1.38 1.31 1.24 1.36 1.32 1.20 1.05 0.97 0.89 0.81 0.84 1.02 1.03 0.97 0.97 0.93 0.88 0.89 0.84 0.81 0.73 0.70 0.74
1.23 1.65 2.12 2.24 1.88 1.81 1.68 1.46 1.30 1.33 1.44 1.40 1.30 1.27 1.19 1.22 1.24 1.22 1.22 1.17 1.17 1.21 1.16 1.16 1.25 1.23 1.14 1.05 1.03 0.94 0.83 0.79 0.89 0.95 0.92 0.85 0.84 0.78 0.72 0.70 0.67 0.61 0.54 0.55